World > North America > United States > Ohio

Dublin, Ohio Regional Weather

Lat: 40.12N, Lon: 83.13W
Wx Zone: OHZ055
Warning NWS WEATHER ALERT - (More Info. Click Here) Warning
Feedback

Dublin, OH Regional Weather

Expires:201910141500;;698171
ASUS41 KCLE 141410
RWRCLE
OHIO REGIONAL WEATHER ROUNDUP
NATIONAL WEATHER SERVICE WILMINGTON, OH
1000 AM EDT MON OCT 14 2019

NOTE: "FAIR" INDICATES FEW OR NO CLOUDS BELOW 12,000 FEET WITH NO
SIGNIFICANT WEATHER AND/OR OBSTRUCTIONS TO VISIBILITY.


OHZ036-037-039>041-045>050-054>059-063>069-073>076-082>088-141500-
  CENTRAL AND SOUTHEAST OHIO
  
CITY           SKY/WX    TMP DP  RH WIND       PRES   REMARKS
COLUMBUS       FAIR      51  36  56 CALM      30.07R                  
OSU AIRPORT    FAIR      52  36  54 NW7       30.07R                  
BOLTON FIELD   SUNNY     52  39  62 W5        30.09R                  
RICKENBACK AFB FAIR      49  39  70 S3        30.08R                  
NEWARK         FAIR      52  40  63 CALM      30.07R                  
MARION         FAIR      49  37  63 MISG      30.06R                  
LANCASTER      FAIR      52  39  61 CALM      30.08R                  
ZANESVILLE     FAIR      52  40  63 W6        30.07R                  
NEW PHILLY     FAIR      52  38  58 CALM      30.06R                  
$$
  

SKY/WX - Weather  TMP - Temperature  DP - Dew Point  RH - Relative Humidity
WIND - Wind Direction/Speed PRES - Barometric Pressure VSB - Visibility
WCI - Wind Chill Index E13G22 Wind - East Wind 13 mph/Gusts of 22 mph